{"data":{"norad_id":82205,"epoch":"2026-09-18T08:10:53.345280Z","epoch_age_seconds":200843,"freshness":"STALE","line1":"1 82205U          26261.34089520  .00001885  00000+0  50706-3 0  9997","line2":"2 82205  63.0062 170.4195 0507399 321.4440  35.1358 13.94682609646980","mean_motion":13.94682609,"eccentricity":0.0507399,"inclination_deg":63.0062,"raan_deg":170.4195,"arg_perigee_deg":321.444,"mean_anomaly_deg":35.1358,"bstar":0.00050706,"rev_number":64698,"period_min":103.24929777625,"perigee_km":542.35245120534,"apogee_km":1282.1811719221,"semimajor_km":7290.4038115637,"source":"CELESTRAK","updated_at":"2026-09-20T09:00:32.431592Z"}}